Regional Weather Roundup
Issued by NWS Cleveland, OH

Home | Current Version | Previous Version | Graphics & Text | Print | Product List | Glossary On
Versions: 1 2 3 4 5 6 7 8 9 10 11 12 13 14 15 16 17 18 19 20 21 22 23 24 25 26 27 28 29 30 31 32 33 34 35 36 37 38 39 40 41 42 43 44 45 46 47 48 49 50
000
ASUS41 KCLE 171702
RWRCLE
OHIO REGIONAL WEATHER ROUNDUP
NATIONAL WEATHER SERVICE CLEVELAND, OH
1200 PM EST TUE JAN 17 2017

NOTE: "FAIR" INDICATES FEW OR NO CLOUDS BELOW 12,000 FEET WITH NO
SIGNIFICANT WEATHER AND/OR OBSTRUCTIONS TO VISIBILITY.

OHZ001>008-015>018-024>027-034-035-043-044-171800-
   NORTHWEST OHIO

CITY           SKY/WX    TMP DP  RH WIND       PRES   REMARKS
DEFIANCE       CLOUDY    49  44  83 SW13G21   29.82S
FINDLAY        PTSUNNY   56  47  71 W20G29    29.82R
TOLEDO EXPRESS CLOUDY    50  48  93 SW20G31   29.80R
TOLEDO EXEC    PTSUNNY   54  50  86 SW17G26   29.80R
LIMA           CLOUDY    52  49  89 W23G29    29.85S
$$

OHZ009>014-019>023-028>033-038-089-171800-
   NORTHEAST OHIO

CITY           SKY/WX    TMP DP  RH WIND       PRES   REMARKS
CLE-HOPKINS    LGT RAIN  58  52  80 S14G22    29.82F
CLE-LAKEFRONT  HVY RAIN  56  52  86 W16       29.79F FOG
CUY CO. ARPT   LGT RAIN  57 N/A N/A SW9       29.80F
LORAIN-ELYRIA  CLOUDY    57  52  83 W14       29.80F
ASHTABULA      NOT AVBL
AKRON-CANTON   CLOUDY    57  52  83 SW13      29.83F
WOOSTER        CLOUDY    57  52  83 SW13      29.82F
MANSFIELD      CLOUDY    57  52  83 SW14G21   29.82F
YOUNGSTOWN     LGT RAIN  54  51  90 S9        29.84F
$$

OHZ042-051>053-060>062-070>072-077>081-171800-
  SOUTHWEST OHIO

CITY           SKY/WX    TMP DP  RH WIND       PRES   REMARKS
CINC-COVINGTON PTSUNNY   58  53  84 W18       29.91S
CINC-LUNKEN    PTSUNNY   65  56  72 SW13G23   29.91F
HAMILTON       CLOUDY    59  53  80 W8        29.92S
DAYTON         CLOUDY    54  50  86 W13       29.89F
WRIGHT-PAT AFB PTSUNNY   57  53  87 W14       29.87F
DAYTON GENERAL CLOUDY    56  50  80 W12       29.89S
WILMINGTON     MOSUNNY   62  55  77 SW20G31   29.87F
$$

OHZ036-037-039>041-045>050-054>059-063>069-073>076-082>088-171800-
  CENTRAL AND SOUTHEAST OHIO

CITY           SKY/WX    TMP DP  RH WIND       PRES   REMARKS
COLUMBUS       CLOUDY    62  54  74 SW15G23   29.85F
OSU AIRPORT    PTSUNNY   59  54  83 W14G24    29.86F
BOLTON FIELD   CLOUDY    61  55  82 SW17G26   29.87F
RICKENBACK AFB   N/A     62  56  80 SW15G23   29.86F
NEWARK         CLOUDY    63  55  75 SW16G25   29.85F
MARION         CLOUDY    58  49  72 W15G23    29.85S
LANCASTER      PTSUNNY   64  56  75 SW14G22   29.88F
ZANESVILLE     PTSUNNY   60  55  83 SW12      29.87F
NEW PHILLY     NOT AVBL
$$




USA.gov is the U.S. government's official web portal to all federal, state and local government web resources and services.